Weather in Seville

Spain     37˚24′59″N   5˚57′59″W
temp.,
°C
wind,
m/s
gust,
m/s
humid.,
%
clouds,
%
prec.,
mm/h
press.,
hPa
HPBL,
m
3 december, thu
thu301:00+11˚ne4106462 0.0 1016302
04:00+10˚ne39510 0.0 1015232
07:00+9˚ne48510 0.0 1016225
10:00+10˚ene37490 0.0 1016342
13:00+14˚e33430 0.0 1015390
16:00+16˚wsw23510 0.0 1012744
19:00+12˚w23710 0.0 101236
22:00+10˚w357623 0.0 1012111
4 december, fri
fri401:00+9˚wnw337531 0.0 101171
04:00+8˚wsw368423 0.0 1008132
07:00+11˚wsw6128149 0.1 1006677
10:00+13˚w6147253 0.1 10061461
13:00+11˚wnw8146276 0.1 10051369
16:00+12˚wnw10146396 0.3 10031537
19:00+8˚wnw5107398 0.6 1003956
22:00+7˚w51276100 0.1 1005947
5 december, sat
sat501:00+6˚wnw7147281 0.1 1006697
04:00+5˚wnw413740 0.0 1007511
07:00+4˚sw22800 0.0 100934
10:00+6˚wsw22710 0.0 1011147
13:00+12˚wnw46460 0.0 10121450
16:00+12˚w57466 0.0 10111727
19:00+8˚w46663 0.0 1012118
22:00+7˚wnw387398 0.0 1013242
6 december, sun
sun601:00+6˚wnw4107999 0.0 1014313
04:00+5˚wnw488315 0.0 1015220
07:00+5˚wnw368322 0.0 1015158
10:00+7˚wnw47740 0.0 1017249
13:00+12˚wnw58540 0.0 10171318
16:00+13˚wnw684930 0.1 10151747
19:00+9˚w356521 0.1 101696
22:00+7˚w34750 0.0 101878
7 december, mon
mon701:00+7˚wnw228122 0.0 101828
04:00+7˚nw128499 0.0 101822
07:00+6˚nnw128964 0.0 101922
10:00+8˚ne11800 0.0 102078
13:00+13˚w24600 0.0 1020871
16:00+16˚w35502 0.0 10191422
19:00+11˚wsw48808 0.0 1020169
22:00+10˚sw238996 0.0 102051